When you browse on this site, cookies collect data to enhance your experience and personalize the content and advertising you see.
Visit our Privacy Policy to learn more. By continuing to use the site, you agree to this use of cookies and data.
  • In Österreich
  • Länderverzeichnis
  • Für 7 Tage
  • Wassertemperatur
  • Satellitenkarten
  • Wetterkarte
  • News
  • Widgets
  • user-avatar
    Anmelden

    Stündliche Wetter Kchulna

    Heute, 23 April, Dienstag

    Zeit Temperatur Niederschläge Wind Luftdruck Luftfeuchtigkeit
    00:00 +31°C° 0 mm 2 m/S 754 mmHg 44%
    01:00 +30°C° 0 mm 1 m/S 754 mmHg 47%
    02:00 +30°C° 0 mm 1 m/S 754 mmHg 50%
    03:00 +27°C° 0 mm 0 m/S 754 mmHg 52%
    04:00 +27°C° 0 mm 0 m/S 754 mmHg 54%
    05:00 +27°C° 0 mm 0 m/S 754 mmHg 55%
    06:00 +27°C° 0 mm 0 m/S 755 mmHg 56%
    07:00 +29°C° 0 mm 0 m/S 755 mmHg 50%
    08:00 +31°C° 0 mm 0 m/S 755 mmHg 43%
    09:00 +34°C° 0 mm 0 m/S 756 mmHg 36%
    10:00 +35°C° 0 mm 0 m/S 756 mmHg 31%
    11:00 +37°C° 0 mm 0 m/S 756 mmHg 27%
    12:00 +42°C° 0 mm 1 m/S 755 mmHg 22%
    13:00 +42°C° 0 mm 1 m/S 755 mmHg 21%
    14:00 +42°C° 0 mm 1 m/S 754 mmHg 21%
    15:00 +42°C° 0 mm 1 m/S 753 mmHg 20%
    16:00 +39°C° 0.5 mm 3 m/S 753 mmHg 29%
    17:00 +37°C° 0.5 mm 4 m/S 753 mmHg 38%
    18:00 +34°C° 0.5 mm 6 m/S 753 mmHg 46%
    19:00 +34°C° 0.2 mm 5 m/S 753 mmHg 45%
    20:00 +34°C° 0.2 mm 4 m/S 754 mmHg 43%
    21:00 +34°C° 0.2 mm 3 m/S 755 mmHg 42%
    22:00 +34°C° 0.1 mm 2 m/S 755 mmHg 45%
    23:00 +32°C° 0.1 mm 2 m/S 755 mmHg 49%

    Morgen, 24 April, Mittwoch

    Zeit Temperatur Niederschläge Wind Luftdruck Luftfeuchtigkeit
    00:00 +32°C° 0.1 mm 2 m/S 755 mmHg 53%
    01:00 +31°C° 0 mm 2 m/S 755 mmHg 56%
    02:00 +31°C° 0 mm 2 m/S 755 mmHg 59%
    03:00 +30°C° 0 mm 1 m/S 754 mmHg 62%
    04:00 +30°C° 0 mm 1 m/S 755 mmHg 63%
    05:00 +28°C° 0 mm 0 m/S 755 mmHg 64%
    06:00 +28°C° 0 mm 0 m/S 755 mmHg 64%
    07:00 +30°C° 0 mm 0 m/S 756 mmHg 56%
    08:00 +34°C° 0 mm 1 m/S 756 mmHg 47%
    09:00 +36°C° 0 mm 1 m/S 757 mmHg 38%
    10:00 +37°C° 0 mm 1 m/S 757 mmHg 33%
    11:00 +40°C° 0 mm 1 m/S 756 mmHg 28%
    12:00 +42°C° 0 mm 1 m/S 756 mmHg 23%
    13:00 +42°C° 0 mm 1 m/S 755 mmHg 22%
    14:00 +43°C° 0 mm 1 m/S 754 mmHg 20%
    15:00 +44°C° 0 mm 1 m/S 754 mmHg 19%
    16:00 +42°C° 0 mm 2 m/S 753 mmHg 21%
    17:00 +41°C° 0 mm 2 m/S 753 mmHg 23%
    18:00 +40°C° 0 mm 3 m/S 753 mmHg 26%
    19:00 +38°C° 0 mm 4 m/S 753 mmHg 33%
    20:00 +37°C° 0 mm 4 m/S 754 mmHg 39%
    21:00 +35°C° 0 mm 5 m/S 754 mmHg 46%
    22:00 +34°C° 0 mm 4 m/S 754 mmHg 50%
    23:00 +34°C° 0 mm 3 m/S 754 mmHg 54%

    übermorgen, 25 April, Donnerstag

    Zeit Temperatur Niederschläge Wind Luftdruck Luftfeuchtigkeit
    00:00 +33°C° 0 mm 3 m/S 754 mmHg 58%
    01:00 +31°C° 0 mm 2 m/S 754 mmHg 60%
    02:00 +31°C° 0 mm 2 m/S 754 mmHg 62%
    03:00 +30°C° 0 mm 1 m/S 754 mmHg 64%
    04:00 +30°C° 0 mm 1 m/S 754 mmHg 66%
    05:00 +30°C° 0 mm 1 m/S 754 mmHg 68%
    06:00 +30°C° 0 mm 1 m/S 754 mmHg 69%
    07:00 +32°C° 0 mm 1 m/S 755 mmHg 60%
    08:00 +35°C° 0 mm 2 m/S 756 mmHg 50%
    09:00 +37°C° 0 mm 2 m/S 756 mmHg 41%
    10:00 +39°C° 0 mm 2 m/S 756 mmHg 35%
    11:00 +42°C° 0 mm 3 m/S 756 mmHg 29%
    12:00 +43°C° 0 mm 3 m/S 756 mmHg 24%
    13:00 +43°C° 0 mm 3 m/S 755 mmHg 23%
    14:00 +43°C° 0 mm 3 m/S 754 mmHg 22%
    15:00 +43°C° 0 mm 3 m/S 753 mmHg 21%
    16:00 +42°C° 0 mm 3 m/S 753 mmHg 22%
    17:00 +40°C° 0 mm 3 m/S 752 mmHg 24%
    18:00 +41°C° 0 mm 4 m/S 752 mmHg 25%
    19:00 +38°C° 0 mm 4 m/S 753 mmHg 31%
    20:00 +36°C° 0 mm 4 m/S 753 mmHg 36%
    21:00 +35°C° 0 mm 5 m/S 754 mmHg 42%
    22:00 +34°C° 0 mm 4 m/S 754 mmHg 47%
    23:00 +33°C° 0 mm 4 m/S 754 mmHg 53%

    26 April, Freitag

    Zeit Temperatur Niederschläge Wind Luftdruck Luftfeuchtigkeit
    00:00 +31°C° 0 mm 3 m/S 754 mmHg 58%
    01:00 +31°C° 0 mm 3 m/S 753 mmHg 59%
    02:00 +31°C° 0 mm 3 m/S 753 mmHg 61%
    03:00 +30°C° 0 mm 3 m/S 752 mmHg 62%
    04:00 +30°C° 0 mm 3 m/S 753 mmHg 63%
    05:00 +30°C° 0 mm 3 m/S 753 mmHg 64%
    06:00 +30°C° 0 mm 2 m/S 753 mmHg 65%
    07:00 +34°C° 0 mm 3 m/S 754 mmHg 55%
    08:00 +36°C° 0 mm 3 m/S 754 mmHg 44%
    09:00 +39°C° 0 mm 3 m/S 755 mmHg 34%
    10:00 +40°C° 0 mm 3 m/S 754 mmHg 30%
    11:00 +43°C° 0 mm 3 m/S 754 mmHg 25%
    12:00 +44°C° 0 mm 3 m/S 754 mmHg 21%
    13:00 +44°C° 0 mm 3 m/S 753 mmHg 21%
    14:00 +44°C° 0 mm 3 m/S 752 mmHg 21%
    15:00 +43°C° 0 mm 3 m/S 751 mmHg 21%
    16:00 +43°C° 0 mm 3 m/S 751 mmHg 23%
    17:00 +42°C° 0 mm 4 m/S 751 mmHg 24%
    18:00 +41°C° 0 mm 4 m/S 751 mmHg 25%
    19:00 +39°C° 0 mm 5 m/S 752 mmHg 33%
    20:00 +36°C° 0 mm 5 m/S 753 mmHg 40%
    21:00 +35°C° 0 mm 6 m/S 753 mmHg 47%
    22:00 +34°C° 0 mm 5 m/S 753 mmHg 51%
    23:00 +33°C° 0 mm 5 m/S 753 mmHg 55%

    27 April, Samstag

    Zeit Temperatur Niederschläge Wind Luftdruck Luftfeuchtigkeit
    00:00 +33°C° 0 mm 4 m/S 753 mmHg 59%
    01:00 +32°C° 0 mm 4 m/S 753 mmHg 61%
    02:00 +32°C° 0 mm 4 m/S 752 mmHg 64%
    03:00 +32°C° 0 mm 4 m/S 752 mmHg 66%
    04:00 +32°C° 0 mm 4 m/S 752 mmHg 68%
    05:00 +30°C° 0 mm 4 m/S 753 mmHg 70%
    06:00 +30°C° 0 mm 4 m/S 753 mmHg 71%
    07:00 +33°C° 0 mm 4 m/S 753 mmHg 62%
    08:00 +36°C° 0 mm 4 m/S 754 mmHg 53%
    09:00 +38°C° 0 mm 4 m/S 755 mmHg 43%
    10:00 +41°C° 0 mm 4 m/S 754 mmHg 37%
    11:00 +43°C° 0 mm 4 m/S 754 mmHg 30%
    12:00 +45°C° 0 mm 4 m/S 753 mmHg 23%
    13:00 +45°C° 0 mm 4 m/S 752 mmHg 22%
    14:00 +45°C° 0 mm 4 m/S 752 mmHg 22%
    15:00 +45°C° 0 mm 4 m/S 751 mmHg 22%
    16:00 +43°C° 0 mm 5 m/S 751 mmHg 31%
    17:00 +41°C° 0 mm 6 m/S 751 mmHg 40%
    18:00 +38°C° 0 mm 7 m/S 751 mmHg 49%
    19:00 +36°C° 0 mm 7 m/S 751 mmHg 56%
    20:00 +35°C° 0 mm 7 m/S 752 mmHg 63%
    21:00 +33°C° 0 mm 6 m/S 752 mmHg 70%
    22:00 +33°C° 0 mm 6 m/S 752 mmHg 70%
    23:00 +33°C° 0 mm 6 m/S 752 mmHg 71%

    28 April, Sonntag

    Zeit Temperatur Niederschläge Wind Luftdruck Luftfeuchtigkeit
    00:00 +32°C° 0 mm 6 m/S 752 mmHg 71%
    01:00 +32°C° 0 mm 5 m/S 752 mmHg 72%
    02:00 +32°C° 0 mm 5 m/S 752 mmHg 73%
    03:00 +32°C° 0 mm 5 m/S 752 mmHg 74%
    04:00 +32°C° 0 mm 4 m/S 752 mmHg 75%
    05:00 +30°C° 0 mm 4 m/S 752 mmHg 77%
    06:00 +30°C° 0 mm 4 m/S 752 mmHg 78%
    07:00 +33°C° 0 mm 4 m/S 753 mmHg 69%
    08:00 +35°C° 0 mm 5 m/S 753 mmHg 60%
    09:00 +38°C° 0 mm 6 m/S 754 mmHg 50%
    10:00 +40°C° 0 mm 6 m/S 753 mmHg 43%
    11:00 +42°C° 0 mm 6 m/S 753 mmHg 36%
    12:00 +45°C° 0 mm 7 m/S 752 mmHg 29%
    13:00 +45°C° 0 mm 7 m/S 751 mmHg 29%
    14:00 +45°C° 0 mm 7 m/S 751 mmHg 29%
    15:00 +45°C° 0 mm 8 m/S 750 mmHg 29%
    16:00 +43°C° 0 mm 8 m/S 750 mmHg 36%
    17:00 +40°C° 0 mm 8 m/S 750 mmHg 43%
    18:00 +38°C° 0 mm 8 m/S 750 mmHg 50%
    19:00 +37°C° 0 mm 8 m/S 751 mmHg 57%
    20:00 +34°C° 0 mm 7 m/S 751 mmHg 65%
    21:00 +33°C° 0 mm 7 m/S 752 mmHg 72%
    22:00 +33°C° 0 mm 7 m/S 752 mmHg 71%
    23:00 +33°C° 0 mm 7 m/S 752 mmHg 69%
    Mehr zeigen